Theta_e
320 320 318 316 315 315 314 313 311 311 310 310 311 312 312 312 311 310 312 314 313 315 316 316 315 314 315 315 315 317 317 316 317 316 316 318 317 317 318 315 316 317 317
317 316 313 312 312 311 310 310 309 308 308 309 309 309 309 309 309 310 313 313 313 314 316 317 316 315 316 317 315 315 315 315 316 317 316 317 316 317 316 316 316 315 315
314 313 312 311 310 311 309 307 306 307 306 306 307 308 307 308 309 311 310 312 314 315 316 317 317 316 317 317 316 315 315 316 315 315 314 316 316 317 316 315 316 316 317
313 312 311 310 310 310 309 307 307 307 307 307 306 307 308 310 309 309 309 313 314 315 316 317 317 317 317 317 317 316 315 315 314 314 314 315 316 316 315 316 317 318 318
312 311 310 311 310 309 308 308 307 306 306 305 306 307 307 308 310 310 312 314 313 316 316 317 317 317 317 314 317 317 315 314 314 313 314 315 316 316 317 318 317 319 318
312 311 311 311 310 309 308 306 305 305 304 304 305 306 306 308 309 311 313 313 314 316 316 317 317 317 318 316 315 314 314 311 314 316 316 317 317 318 317 317 318 317 317
312 312 311 311 310 308 307 307 306 305 305 305 306 306 307 309 311 310 311 312 314 315 316 316 318 316 316 314 313 312 315 315 316 317 317 319 318 316 317 317 317 315 314
313 312 311 312 311 308 308 307 306 307 307 307 307 308 310 312 309 308 309 312 313 315 316 317 317 314 314 312 314 317 318 317 318 318 317 316 315 317 317 318 317 316 318
314 312 311 312 310 308 308 306 305 307 307 308 308 309 310 309 308 309 311 313 314 314 317 317 315 313 312 312 315 317 317 318 316 317 316 315 316 316 316 316 316 316 317
313 312 312 311 309 310 307 307 307 307 307 309 309 310 309 309 309 310 313 314 314 317 317 312 313 312 313 314 316 318 318 317 314 315 315 315 315 313 315 315 316 316 317
314 313 312 312 310 309 307 307 308 307 308 309 309 309 310 310 310 313 315 314 315 318 314 312 314 312 313 314 315 318 317 314 314 314 313 314 315 314 312 312 314 315 317
314 313 312 312 311 310 308 308 308 308 309 309 310 309 309 309 313 313 315 316 315 314 315 316 313 313 313 313 316 317 317 318 318 316 314 316 318 316 316 313 313 316 314
314 313 312 312 312 311 309 309 309 309 309 309 308 307 309 310 314 314 314 315 315 315 316 316 311 311 314 313 314 316 318 318 317 318 317 317 318 316 316 315 313 312 313
314 314 312 311 311 310 309 310 310 309 308 309 307 308 310 313 314 314 314 315 314 314 315 312 310 311 312 313 314 316 316 317 317 317 318 318 315 315 315 314 314 313 316
314 313 312 313 310 310 310 309 309 310 309 308 309 307 312 313 314 314 315 315 315 316 315 312 311 314 313 312 314 314 315 316 317 318 316 317 317 317 318 315 312 316 315
313 313 313 313 313 310 310 310 310 310 310 309 309 308 311 313 313 313 314 315 314 315 315 314 314 314 315 315 315 315 314 314 316 319 318 317 316 317 317 319 318 317 318
313 313 314 314 313 313 312 310 310 310 310 310 310 309 308 312 313 314 314 313 313 314 314 315 315 315 315 315 315 315 315 315 315 316 317 319 319 316 316 316 317 318 317
314 313 313 313 314 313 313 312 311 310 310 310 311 310 310 309 312 314 314 314 313 313 312 314 314 315 315 316 315 315 315 316 314 316 317 317 318 318 316 317 317 316 318
314 314 313 313 314 314 313 312 312 312 310 310 310 311 310 310 309 312 314 314 313 314 314 313 314 314 315 314 315 315 316 316 315 314 315 316 317 317 314 314 315 316 316
315 315 315 314 313 312 313 313 312 313 313 311 310 309 311 311 310 311 313 313 313 314 314 314 314 315 314 315 314 313 315 316 315 312 313 315 316 316 317 316 315 316 316
317 317 316 315 315 313 313 313 313 313 313 313 312 310 309 311 311 310 313 312 314 313 315 315 313 315 314 314 314 315 316 316 316 315 313 313 314 315 315 316 317 316 316
317 317 318 318 316 316 314 314 314 314 314 313 313 313 311 309 308 308 307 309 313 314 316 316 316 316 315 314 314 314 315 315 315 317 317 315 313 313 314 315 316 316 316
317 316 316 317 317 317 316 315 314 314 314 314 314 312 312 311 309 308 308 307 309 312 314 314 315 316 316 315 315 315 315 314 314 315 316 316 317 317 315 314 315 316 316
313 314 314 315 317 317 316 316 315 315 314 314 315 314 313 312 310 309 309 308 308 310 311 313 314 315 316 316 314 316 316 315 317 317 316 315 315 317 317 317 317 317 316
313 314 314 316 315 316 316 315 314 314 315 314 314 313 313 313 312 311 311 310 309 309 309 311 311 313 314 315 315 315 316 316 316 316 317 315 314 314 315 316 317 317 316
312 313 313 311 312 312 312 314 315 314 314 314 314 313 312 310 313 311 311 311 310 310 309 309 310 310 311 313 314 315 316 316 317 317 317 316 316 316 315 317 315 316 315
Wind_Speed
10 12 13 16 16 18 20 23 26 26 26 26 26 25 25 24 27 28 24 24 27 26 22 22 22 19 20 16 15 17 16 17 21 22 17 14 13 14 17 20 24 24 25
15 17 18 19 21 24 21 23 30 31 30 29 29 29 30 28 28 22 25 26 29 25 23 21 20 19 19 16 14 17 17 17 20 23 23 21 24 25 27 23 21 21 20
15 16 17 19 23 18 24 31 35 31 29 28 28 25 22 22 22 23 25 28 27 23 22 17 17 19 17 14 14 14 15 15 16 21 22 21 22 21 21 22 22 18 17
14 15 17 21 19 20 28 34 32 30 30 30 28 27 25 25 26 25 27 28 20 16 14 15 18 15 14 13 13 12 12 14 15 17 18 18 19 18 19 14 10 9 11
13 15 20 18 15 27 28 31 31 32 34 32 26 22 23 22 23 22 24 19 16 11 10 10 7 9 6 8 10 9 12 16 19 20 20 19 17 11 12 8 7 9 12
13 17 19 16 19 22 33 33 29 31 29 25 23 19 19 18 20 20 15 16 11 6 5 6 5 4 8 8 10 12 17 20 17 14 16 16 15 11 5 6 8 14 15
16 17 19 18 22 33 34 25 29 28 25 22 19 14 17 14 15 10 12 10 9 4 6 6 5 5 3 6 9 15 11 7 4 2 3 6 6 6 6 11 13 13 11
17 17 21 17 25 37 22 27 26 28 28 22 17 18 16 9 12 16 12 7 5 2 2 4 3 5 7 6 5 5 3 5 5 5 2 3 3 9 10 16 16 13 11
16 19 19 20 31 23 18 25 25 27 26 21 14 15 11 14 14 10 8 3 2 2 3 6 5 3 5 1 5 3 8 8 8 6 8 10 12 13 8 12 12 16 18
17 18 21 24 28 17 17 23 21 24 29 22 14 13 15 19 11 8 1 8 9 6 12 9 6 9 11 7 7 10 11 13 17 17 16 22 22 19 19 11 17 23 23
16 16 18 18 18 14 20 19 19 20 23 22 19 17 18 23 14 7 13 12 6 9 8 8 8 10 14 15 7 16 16 14 15 18 19 18 14 15 17 14 8 24 27
15 16 16 19 17 14 19 17 16 19 17 17 18 20 20 17 5 12 11 10 9 4 8 6 7 10 14 15 12 12 12 12 9 8 7 7 15 18 14 15 19 19 23
16 16 16 17 18 15 17 17 12 16 16 17 20 20 19 10 7 8 6 6 7 7 10 7 4 9 13 13 13 10 9 7 9 8 6 9 10 12 12 18 20 21 22
15 16 15 15 13 13 17 12 14 14 16 13 19 19 11 3 7 11 9 9 9 10 8 8 6 8 7 9 10 10 9 6 6 5 9 12 12 14 16 19 22 21 13
15 17 11 13 14 15 14 13 16 13 15 15 17 17 9 3 8 9 10 9 8 4 5 6 6 5 3 3 5 4 3 4 7 8 13 13 12 12 12 13 14 15 13
15 15 14 13 14 14 13 14 15 15 14 14 14 14 8 2 6 9 11 10 9 9 8 6 7 7 6 4 4 2 3 3 1 8 9 11 13 13 12 12 9 15 15
17 18 18 13 14 13 13 13 14 16 15 12 11 11 9 3 6 10 12 13 13 11 13 10 8 11 9 7 6 7 5 3 4 4 5 7 12 12 13 11 13 18 18
18 18 20 18 15 15 14 12 14 11 13 13 12 10 9 7 6 11 12 13 15 16 13 12 11 9 11 10 10 11 8 4 7 8 7 10 10 13 10 9 6 7 19
20 20 19 21 20 18 18 20 16 17 12 12 13 13 12 7 8 11 18 17 17 13 13 14 12 12 10 16 10 10 11 11 11 12 12 11 7 14 11 10 11 7 15
24 24 23 24 24 22 21 20 19 18 15 13 13 15 13 11 8 6 8 16 19 20 18 19 16 15 15 13 12 18 13 10 8 11 14 12 11 11 12 15 15 14 14
24 25 25 27 27 26 25 24 23 22 20 17 15 14 17 12 9 11 17 13 15 20 22 18 20 18 17 15 15 15 14 16 15 14 12 15 14 14 14 11 17 15 14
27 29 28 29 29 31 31 30 28 25 25 26 22 18 19 21 22 21 21 18 20 20 19 20 23 18 17 22 19 19 19 17 18 20 18 18 19 16 16 14 13 21 20
31 28 29 31 32 34 32 28 28 28 28 26 27 25 24 20 20 17 18 20 19 20 16 23 25 21 22 23 23 16 14 16 15 24 21 17 20 16 18 15 13 14 13
34 40 37 33 32 33 32 33 34 34 33 30 26 26 25 18 18 19 16 15 18 19 18 22 22 24 22 20 28 17 18 23 16 27 23 22 25 17 9 17 11 8 15
39 38 34 34 30 33 39 40 38 34 32 30 35 31 22 21 28 23 18 19 19 22 19 20 21 21 27 25 26 21 22 24 21 12 25 16 19 24 20 16 14 14 13
42 40 39 40 38 35 36 37 30 31 31 33 27 27 31 30 30 30 30 28 20 20 21 22 20 20 20 22 26 28 24 25 23 23 18 22 22 20 21 15 17 18 18
Wind_Direction
337 331 334 332 321 308 313 315 315 312 311 310 307 304 300 298 292 294 293 294 293 290 288 274 273 263 256 250 248 246 249 250 258 274 277 285 263 261 259 274 261 256 257
337 337 334 322 318 320 319 321 319 312 307 303 298 298 297 294 294 291 299 292 295 292 285 274 266 255 254 247 252 249 254 262 259 269 280 273 270 272 276 272 270 267 268
330 332 330 330 327 316 321 322 323 319 311 307 301 300 308 304 298 296 293 290 295 288 281 263 261 261 253 247 254 256 260 260 266 273 284 284 282 278 274 279 278 261 249
334 333 329 325 317 323 325 328 325 325 318 310 307 297 302 303 297 295 289 291 292 292 276 264 253 253 259 255 256 251 263 269 275 283 280 281 291 291 277 271 271 237 225
333 331 325 322 316 328 328 322 326 323 321 316 309 293 295 297 299 288 296 285 291 296 279 258 241 234 250 240 251 253 273 281 284 284 271 271 280 279 260 255 222 192 167
328 325 329 324 333 324 333 329 334 327 329 327 325 314 310 304 291 293 301 296 284 302 265 205 229 257 252 242 246 271 280 287 289 266 260 260 269 262 241 189 197 166 172
322 323 329 330 325 337 336 341 332 340 345 343 338 336 328 313 325 318 325 304 289 266 247 211 206 237 251 254 288 292 300 285 278 210 233 247 238 230 209 170 156 154 169
321 330 335 321 332 339 345 337 354 345 346 345 349 341 339 338 331 315 305 296 286 321 150 195 188 192 223 300 313 301 48 109 113 87 65 152 85 162 151 159 166 157 117
328 332 327 326 335 341 338 345 356 347 356 358 354 360 346 326 332 328 323 286 183 141 152 152 149 94 326 214 340 87 102 112 110 88 119 102 95 116 114 146 150 151 131
324 327 319 327 341 344 334 337 355 356 356 347 348 349 339 337 336 329 18 127 146 143 134 118 90 15 108 58 57 112 115 108 102 107 108 118 115 102 108 118 146 154 141
314 319 317 326 344 328 332 340 341 342 354 0 359 354 343 343 337 79 125 117 133 140 150 127 91 67 79 70 131 113 117 115 120 115 118 111 106 111 107 90 147 162 141
310 315 316 318 335 307 334 326 335 343 348 352 350 348 336 330 4 128 132 144 76 157 150 147 100 94 95 96 100 105 122 130 127 120 107 84 115 116 106 120 95 143 132
305 306 310 313 317 309 328 333 334 342 344 343 349 352 347 349 82 131 105 122 98 159 134 140 125 121 102 98 107 105 87 93 150 142 145 144 105 89 106 122 124 124 131
297 297 304 310 308 326 320 328 324 329 342 339 347 1 8 18 124 135 120 117 94 107 124 139 114 130 147 117 116 82 75 55 94 161 129 117 126 121 124 128 130 141 141
285 291 304 304 312 310 314 308 310 307 336 350 356 5 22 167 138 155 152 157 165 153 160 168 153 127 117 119 93 50 80 97 56 146 147 142 150 147 145 132 144 142 123
276 283 290 287 303 310 311 310 309 313 319 338 355 4 20 163 192 189 185 193 192 182 186 194 214 207 221 217 199 190 130 153 57 143 140 145 159 170 157 170 168 150 159
272 272 277 282 283 292 299 300 304 308 309 311 333 352 1 266 242 216 210 213 200 198 215 229 219 225 233 214 203 210 235 198 162 182 217 204 165 143 159 161 180 195 178
272 269 267 274 275 273 287 297 303 287 290 303 302 312 328 328 253 223 231 221 216 221 224 230 250 231 227 227 226 229 224 215 206 208 204 200 199 194 178 207 193 167 174
266 269 267 268 266 271 273 278 284 274 284 285 288 278 282 286 297 243 226 226 222 225 239 238 226 214 245 225 234 222 227 229 220 210 208 212 220 190 184 181 184 190 159
265 266 269 266 263 262 266 268 269 275 277 274 267 272 265 239 283 246 239 233 218 220 228 229 237 242 233 235 235 237 211 227 219 202 210 217 219 211 200 199 192 185 184
264 264 265 265 267 260 254 255 260 263 264 269 269 261 255 253 240 248 248 261 236 230 236 235 236 246 230 227 236 221 240 234 220 213 211 213 215 221 222 220 204 208 197
260 263 265 262 259 261 250 250 249 248 259 252 252 263 255 247 252 253 248 241 241 238 239 237 235 240 225 225 237 230 231 231 230 217 230 214 209 216 226 234 211 213 211
276 273 269 263 261 260 257 254 246 246 249 251 253 248 262 255 241 242 250 244 242 243 245 232 239 233 231 228 217 239 228 230 237 228 228 226 204 212 222 222 227 226 215
285 276 268 265 264 263 254 248 249 246 247 248 249 240 243 250 244 241 243 241 243 247 240 238 241 235 233 239 227 244 237 231 244 216 227 224 224 217 214 222 221 218 199
280 274 269 273 262 265 263 257 249 251 236 238 243 242 250 245 245 246 243 229 238 245 246 243 247 246 230 231 226 234 235 228 226 217 202 210 206 219 241 215 222 225 223
279 273 264 261 262 272 269 266 259 244 253 251 243 244 242 236 243 239 239 248 233 224 226 237 245 244 243 241 236 234 236 237 235 221 202 204 206 207 224 214 222 241 233